| time (UTC) | temp F | wind direction | speed MPH | gust MPH | rain 1hr in | rain 24hr in | rain mn in | humidity % | barometer mb |
| 20260507041104 | 31 | 0 | 0.0 | 1.0 | 0.00 | 0.00 | 0.00 | 89 | 1014.5 |
| 20260507040114 | 31 | 0 | 0.0 | 2.0 | 0.00 | 0.00 | 0.00 | 88 | 1014.4 |
| 20260507034605 | 31 | 352 | 1.0 | 1.0 | 0.00 | 0.00 | 0.00 | 87 | 1014.4 |
| 20260507034104 | 31 | 0 | 0.0 | 0.0 | 0.00 | 0.00 | 0.00 | 87 | 1014.3 |
| 20260507033103 | 31 | 0 | 0.0 | 2.0 | 0.00 | 0.00 | 0.00 | 85 | 1014.4 |
| 20260507031104 | 32 | 0 | 0.0 | 0.0 | 0.00 | 0.00 | 0.00 | 87 | 1014.4 |
| 20260507030115 | 32 | 0 | 0.0 | 1.0 | 0.00 | 0.00 | 0.00 | 89 | 1014.3 |
| 20260507024604 | 31 | 0 | 0.0 | 2.0 | 0.00 | 0.00 | 0.00 | 88 | 1014.1 |
| 20260507023604 | 31 | 352 | 1.0 | 1.0 | 0.00 | 0.00 | 0.00 | 87 | 1014.0 |
| 20260507023104 | 31 | 351 | 1.0 | 2.0 | 0.00 | 0.00 | 0.00 | 86 | 1014.0 |
| 20260507020604 | 31 | 352 | 1.0 | 2.0 | 0.00 | 0.00 | 0.00 | 85 | 1013.9 |
| 20260507020115 | 32 | 0 | 0.0 | 2.0 | 0.00 | 0.00 | 0.00 | 85 | 1014.0 |
| 20260507014105 | 32 | 351 | 0.0 | 2.0 | 0.00 | 0.00 | 0.00 | 85 | 1013.9 |
| 20260507013104 | 33 | 0 | 0.0 | 1.0 | 0.00 | 0.00 | 0.00 | 85 | 1013.9 |
| 20260507011604 | 32 | 351 | 1.0 | 1.0 | 0.00 | 0.00 | 0.00 | 85 | 1013.8 |
| 20260507010604 | 33 | 351 | 0.0 | 1.0 | 0.00 | 0.00 | 0.00 | 85 | 1013.7 |
| 20260507001103 | 35 | 0 | 0.0 | 2.0 | 0.00 | 0.00 | 0.00 | 79 | 1013.3 |
| 20260507000602 | 35 | 290 | 0.0 | 2.0 | 0.00 | 0.00 | 0.00 | 79 | 1013.3 |
| 20260506234102 | 37 | 0 | 0.0 | 2.0 | 0.00 | 0.00 | 0.00 | 73 | 1013.3 |
| 20260506233604 | 37 | 0 | 0.0 | 2.0 | 0.00 | 0.00 | 0.00 | 72 | 1013.1 |
| 20260506233104 | 38 | 0 | 0.0 | 2.0 | 0.00 | 0.00 | 0.00 | 71 | 1013.2 |
| 20260506231603 | 39 | 0 | 0.0 | 2.0 | 0.00 | 0.00 | 0.00 | 69 | 1013.1 |
| 20260506231103 | 39 | 0 | 0.0 | 2.0 | 0.00 | 0.00 | 0.00 | 69 | 1013.0 |
| 20260506230114 | 40 | 0 | 0.0 | 2.0 | 0.00 | 0.00 | 0.00 | 70 | 1012.9 |
| 20260506224604 | 41 | 280 | 1.0 | 2.0 | 0.00 | 0.00 | 0.00 | 66 | 1012.9 |
| 20260506224103 | 41 | 311 | 0.0 | 1.0 | 0.00 | 0.00 | 0.00 | 67 | 1012.9 |
| 20260506223603 | 41 | 311 | 0.0 | 2.0 | 0.00 | 0.00 | 0.00 | 66 | 1012.9 |
| 20260506223104 | 41 | 0 | 0.0 | 2.0 | 0.00 | 0.00 | 0.00 | 65 | 1012.9 |
| 20260506220604 | 42 | 326 | 0.0 | 3.0 | 0.00 | 0.00 | 0.00 | 63 | 1012.8 |
| 20260506214603 | 43 | 316 | 1.0 | 2.0 | 0.00 | 0.00 | 0.00 | 60 | 1012.6 |
| 20260506211103 | 43 | 283 | 1.0 | 5.0 | 0.00 | 0.00 | 0.00 | 59 | 1012.2 |
| 20260506210604 | 43 | 251 | 2.0 | 3.0 | 0.00 | 0.00 | 0.00 | 60 | 1012.2 |
| 20260506210114 | 43 | 262 | 2.0 | 3.0 | 0.00 | 0.00 | 0.00 | 60 | 1012.2 |
| 20260506204603 | 42 | 0 | 0.0 | 0.0 | 0.00 | 0.00 | 0.00 | 63 | 1012.2 |
| 20260506201604 | 44 | 352 | 1.0 | 1.0 | 0.00 | 0.00 | 0.00 | 58 | 1012.2 |
| 20260506200603 | 45 | 0 | 0.0 | 2.0 | 0.00 | 0.00 | 0.00 | 56 | 1012.2 |
| 20260506193104 | 48 | 340 | 0.0 | 3.0 | 0.00 | 0.00 | 0.00 | 49 | 1012.2 |
| 20260506191604 | 49 | 288 | 2.0 | 2.0 | 0.00 | 0.00 | 0.00 | 46 | 1011.9 |
| 20260506190114 | 50 | 326 | 0.0 | 3.0 | 0.00 | 0.00 | 0.00 | 45 | 1011.8 |
| 20260506183604 | 52 | 292 | 1.0 | 6.0 | 0.00 | 0.00 | 0.00 | 40 | 1011.5 |
| 20260506181604 | 53 | 298 | 2.0 | 7.0 | 0.00 | 0.00 | 0.00 | 40 | 1011.4 |
| 20260506181103 | 53 | 267 | 2.0 | 8.0 | 0.00 | 0.00 | 0.00 | 39 | 1011.3 |
| 20260506180603 | 53 | 281 | 5.0 | 10.0 | 0.00 | 0.00 | 0.00 | 38 | 1011.4 |
| 20260506180113 | 54 | 284 | 1.0 | 10.0 | 0.00 | 0.00 | 0.00 | 38 | 1011.4 |
| 20260506174103 | 55 | 285 | 3.0 | 12.0 | 0.00 | 0.00 | 0.00 | 35 | 1011.2 |
| 20260506171603 | 55 | 292 | 1.0 | 9.0 | 0.00 | 0.00 | 0.00 | 35 | 1011.1 |
| 20260506170115 | 56 | 333 | 6.0 | 12.0 | 0.00 | 0.00 | 0.00 | 35 | 1011.1 |
| 20260506163603 | 56 | 253 | 7.0 | 10.0 | 0.00 | 0.00 | 0.00 | 32 | 1011.0 |
| 20260506160604 | 57 | 326 | 5.0 | 14.0 | 0.00 | 0.00 | 0.00 | 31 | 1010.9 |
| 20260506160114 | 57 | 275 | 3.0 | 14.0 | 0.00 | 0.00 | 0.00 | 31 | 1010.9 |
| 20260506154103 | 57 | 294 | 8.0 | 8.0 | 0.00 | 0.00 | 0.00 | 30 | 1010.9 |
| 20260506153603 | 57 | 291 | 3.0 | 8.0 | 0.00 | 0.00 | 0.00 | 31 | 1010.9 |
| 20260506153103 | 57 | 282 | 3.0 | 12.0 | 0.00 | 0.00 | 0.00 | 30 | 1010.9 |
| 20260506151604 | 58 | 277 | 2.0 | 8.0 | 0.00 | 0.00 | 0.00 | 29 | 1011.0 |
| 20260506151103 | 58 | 277 | 5.0 | 9.0 | 0.00 | 0.00 | 0.00 | 29 | 1010.9 |
| 20260506150603 | 57 | 279 | 5.0 | 9.0 | 0.00 | 0.00 | 0.00 | 29 | 1010.9 |
| 20260506144603 | 57 | 247 | 7.0 | 13.0 | 0.00 | 0.00 | 0.00 | 29 | 1011.0 |
| 20260506144103 | 57 | 234 | 1.0 | 13.0 | 0.00 | 0.00 | 0.00 | 28 | 1011.1 |
| 20260506143104 | 56 | 263 | 2.0 | 15.0 | 0.00 | 0.00 | 0.00 | 29 | 1011.0 |
| 20260506140114 | 57 | 300 | 1.0 | 13.0 | 0.00 | 0.00 | 0.00 | 30 | 1011.1 |
| 20260506134604 | 57 | 268 | 7.0 | 13.0 | 0.00 | 0.00 | 0.00 | 29 | 1011.1 |
| 20260506134104 | 58 | 230 | 8.0 | 13.0 | 0.00 | 0.00 | 0.00 | 29 | 1011.1 |
| 20260506130114 | 57 | 288 | 6.0 | 13.0 | 0.00 | 0.00 | 0.00 | 30 | 1011.1 |
| 20260506124604 | 58 | 291 | 3.0 | 9.0 | 0.00 | 0.00 | 0.00 | 23 | 1011.1 |
| 20260506123103 | 58 | 292 | 3.0 | 8.0 | 0.00 | 0.00 | 0.00 | 25 | 1011.2 |
| 20260506114603 | 58 | 225 | 5.0 | 9.0 | 0.00 | 0.00 | 0.00 | 24 | 1011.4 |
| 20260506114103 | 58 | 219 | 5.0 | 9.0 | 0.00 | 0.00 | 0.00 | 24 | 1011.4 |
| 20260506113603 | 58 | 190 | 3.0 | 9.0 | 0.00 | 0.00 | 0.00 | 24 | 1011.4 |
| 20260506110604 | 59 | 242 | 3.0 | 3.0 | 0.00 | 0.00 | 0.00 | 24 | 1011.6 |
| 20260506110114 | 58 | 24 | 1.0 | 7.0 | 0.00 | 0.00 | 0.00 | 25 | 1011.6 |
| 20260506104603 | 57 | 147 | 3.0 | 8.0 | 0.00 | 0.00 | 0.00 | 25 | 1011.7 |
| 20260506104103 | 56 | 242 | 1.0 | 8.0 | 0.00 | 0.00 | 0.00 | 25 | 1011.8 |
| 20260506101603 | 57 | 189 | 3.0 | 8.0 | 0.00 | 0.00 | 0.00 | 25 | 1011.9 |
| 20260506101103 | 57 | 300 | 2.0 | 8.0 | 0.00 | 0.00 | 0.00 | 26 | 1012.0 |
| 20260506100115 | 56 | 161 | 3.0 | 8.0 | 0.00 | 0.00 | 0.00 | 28 | 1012.0 |
| 20260506094104 | 56 | 180 | 2.0 | 8.0 | 0.00 | 0.00 | 0.00 | 29 | 1012.2 |
| 20260506093103 | 55 | 164 | 7.0 | 7.0 | 0.00 | 0.00 | 0.00 | 29 | 1012.1 |
| 20260506091603 | 54 | 246 | 1.0 | 7.0 | 0.00 | 0.00 | 0.00 | 29 | 1012.2 |
| 20260506090114 | 54 | 217 | 1.0 | 8.0 | 0.00 | 0.00 | 0.00 | 29 | 1012.2 |
| 20260506084604 | 54 | 158 | 3.0 | 8.0 | 0.00 | 0.00 | 0.00 | 29 | 1012.3 |
| 20260506084103 | 53 | 74 | 5.0 | 9.0 | 0.00 | 0.00 | 0.00 | 28 | 1012.3 |
| 20260506083604 | 53 | 146 | 3.0 | 9.0 | 0.00 | 0.00 | 0.00 | 28 | 1012.3 |
| 20260506071103 | 50 | 281 | 0.0 | 3.0 | 0.00 | 0.00 | 0.00 | 47 | 1012.3 |
| 20260506060603 | 41 | 0 | 0.0 | 0.0 | 0.00 | 0.00 | 0.00 | 70 | 1012.5 |
| 20260506051104 | 36 | 57 | 0.0 | 2.0 | 0.00 | 0.00 | 0.00 | 85 | 1012.6 |
| 20260506050603 | 36 | 0 | 0.0 | 2.0 | 0.00 | 0.00 | 0.00 | 84 | 1012.7 |
| 20260506050114 | 35 | 0 | 0.0 | 2.0 | 0.00 | 0.00 | 0.00 | 86 | 1012.7 |
| 20260506044603 | 33 | 57 | 1.0 | 2.0 | 0.00 | 0.00 | 0.00 | 86 | 1012.7 |